STARLINK-36925, 68042

Orbit data source: Space-Track

STARLINK-36925, 68042 is a payload satellite owned by SpaceX/Seattle (US) in LEO that was launched on Mon, 02 Mar 2026 UTC via an FALCON 9 launch vehicle from the Air Force Eastern Test Range (AFETR). Payload-class satellites include a variety of spacecraft equipped with specific instruments for various scientific and technological missions. These include communications satellites like Starlink; space stations such as the ISS; scientific satellites like the Hubble; Earth observation satellites from companies like Planet Labs, Umbra, and HawkEye 360; GPS; miniature CubeSats for education and research; and military/defense satellites.

Loading next visibility...
Identifier
68042, 2026-041C
Orbit
LEO
Country
Flag of USUS
Related business
Manufacturer
SpaceX/Seattle
Mission
Operational spacecraft
Bus & Motor
STARLINK V2MO, Unknown motor
Mass
575 kg wet, ~530 kg dry
Launch date (UTC)
2026-03-02 (1 month ago)
Launch vehicle
FALCON 9
Launch site
Air Force Eastern Test Range (AFETR)
Object type
Payload
Rocket body
Debris
Shape & HBR
Unknown shape, 17.7 m
Radar Cross Section
RCS unknown

Expand to show TLE details & history
Last TLE update: 7 hours ago

TLE from 7 hours ago
0 STARLINK-36925
1 68042U 26041C   26105.25002315  .00083455  00000-0  14953-2 0  9994
2 68042  53.1604 240.8215 0000702  64.9982 351.7414 15.49258089  6013
Epoch: 2026-04-15T06:00Z
TLE epoch observation values (Epoch: 2026-04-15T06:00:02.000Z)
Latitude
42.14167°
Longitude
-10.21359°
Altitude
422.469 km
Speed
7.663 km/s
True Right ascension
18h 52m 50s
True Declination
41° 57' 44"
Sunlit
Object was in daylight at epoch
Visualization orbit readout
Latitude
Unknown
Longitude
Unknown
Altitude
Unknown
Speed
Unknown
Apparent Right ascension
Unknown
Apparent Declination
Unknown
Sunlit
N/A
Visualization observer readout
Local Sidereal Time
19:39:28
Azimuth
Unknown
Elevation
Unknown
Doppler factor
Unknown
Orbital elements
Apogee altitude
419.631 km
Perigee altitude
418.676 km
Semi-major axis
6,797.291 km
Eccentricity
0.00007
Inclination
53.1604°
RAAN
240.8215°
Arg. of periapsis
64.9982°
True anomaly
351.74024°
Mean anomaly
351.7414°
Eccentric anomaly
351.74082°
Mean motion
3.87293 °/min
Orbital period
92.95 mins
BSTAR
0.0014953
Loading maneuver chart data...
Computing Atmospheric mass density...
Loading historical data...
Loading historical data...
Loading historical data...
Loading historical data...
Loading historical data...
Loading historical data...
Loading historical data...

Documentation

Showing up to 5 results
|